| time (UTC) | temp F | wind direction | speed MPH | gust MPH | rain 1hr in | rain 24hr in | rain mn in | humidity % | barometer mb |
| 20260901040518 | 76 | 254 | 1.0 | 3.0 | 0.00 | 0.00 | 0.00 | 87 | 1013.9 |
| 20260901040046 | 76 | 241 | 1.0 | 3.0 | 0.00 | 0.00 | 0.00 | 86 | 1013.9 |
| 20260901035520 | 76 | 0 | 1.0 | 2.0 | 0.00 | 0.00 | 0.00 | 87 | 1013.8 |
| 20260901035019 | 76 | 262 | 1.0 | 2.0 | 0.00 | 0.00 | 0.00 | 86 | 1013.9 |
| 20260901034547 | 76 | 239 | 1.0 | 3.0 | 0.00 | 0.00 | 0.00 | 86 | 1013.9 |
| 20260901034019 | 76 | 259 | 1.0 | 3.0 | 0.00 | 0.00 | 0.00 | 86 | 1014.0 |
| 20260901033519 | 76 | 239 | 2.0 | 3.0 | 0.00 | 0.00 | 0.00 | 86 | 1014.0 |
| 20260901033059 | 76 | 233 | 1.0 | 3.0 | 0.00 | 0.00 | 0.00 | 86 | 1014.0 |
| 20260901032517 | 76 | 246 | 1.0 | 2.0 | 0.00 | 0.00 | 0.00 | 86 | 1014.0 |
| 20260901032023 | 76 | 265 | 1.0 | 2.0 | 0.00 | 0.00 | 0.00 | 86 | 1014.0 |
| 20260901031602 | 76 | 292 | 1.0 | 2.0 | 0.00 | 0.00 | 0.00 | 85 | 1013.9 |
| 20260901031022 | 77 | 267 | 1.0 | 3.0 | 0.00 | 0.00 | 0.00 | 84 | 1014.0 |
| 20260901030526 | 77 | 271 | 1.0 | 3.0 | 0.00 | 0.00 | 0.00 | 84 | 1014.0 |
| 20260901030045 | 77 | 249 | 1.0 | 3.0 | 0.00 | 0.00 | 0.00 | 84 | 1014.0 |
| 20260901025526 | 77 | 257 | 2.0 | 3.0 | 0.00 | 0.00 | 0.00 | 84 | 1014.0 |
| 20260901025023 | 77 | 244 | 1.0 | 3.0 | 0.00 | 0.00 | 0.00 | 83 | 1014.0 |
| 20260901024546 | 77 | 263 | 1.0 | 4.0 | 0.00 | 0.00 | 0.00 | 83 | 1014.0 |
| 20260901024019 | 78 | 260 | 1.0 | 4.0 | 0.00 | 0.00 | 0.00 | 83 | 1014.0 |
| 20260901023517 | 78 | 232 | 2.0 | 4.0 | 0.00 | 0.00 | 0.00 | 83 | 1013.9 |
| 20260901023044 | 78 | 253 | 2.0 | 4.0 | 0.00 | 0.00 | 0.00 | 83 | 1014.0 |
| 20260901022523 | 78 | 238 | 1.0 | 4.0 | 0.00 | 0.00 | 0.00 | 83 | 1013.9 |
| 20260901022019 | 78 | 263 | 2.0 | 6.0 | 0.00 | 0.00 | 0.00 | 83 | 1014.0 |
| 20260901021538 | 78 | 229 | 2.0 | 6.0 | 0.00 | 0.00 | 0.00 | 82 | 1014.1 |
| 20260901021023 | 78 | 209 | 2.0 | 6.0 | 0.00 | 0.00 | 0.00 | 82 | 1014.0 |
| 20260901020523 | 78 | 233 | 2.0 | 6.0 | 0.00 | 0.00 | 0.00 | 82 | 1013.9 |
| 20260901020039 | 78 | 280 | 3.0 | 5.0 | 0.00 | 0.00 | 0.00 | 82 | 1013.9 |
| 20260901015521 | 78 | 249 | 2.0 | 5.0 | 0.00 | 0.00 | 0.00 | 82 | 1013.9 |
| 20260901015021 | 78 | 265 | 2.0 | 5.0 | 0.00 | 0.00 | 0.00 | 81 | 1013.9 |
| 20260901014552 | 79 | 237 | 2.0 | 5.0 | 0.00 | 0.00 | 0.00 | 81 | 1013.9 |
| 20260901014019 | 79 | 234 | 2.0 | 7.0 | 0.00 | 0.00 | 0.00 | 81 | 1013.8 |
| 20260901013521 | 79 | 246 | 2.0 | 7.0 | 0.00 | 0.00 | 0.00 | 80 | 1013.7 |
| 20260901013046 | 79 | 229 | 3.0 | 8.0 | 0.00 | 0.00 | 0.00 | 80 | 1013.6 |
| 20260901012518 | 79 | 302 | 2.0 | 8.0 | 0.00 | 0.00 | 0.00 | 80 | 1013.6 |
| 20260901012016 | 79 | 239 | 3.0 | 8.0 | 0.00 | 0.00 | 0.00 | 80 | 1013.5 |
| 20260901011540 | 79 | 233 | 3.0 | 8.0 | 0.00 | 0.00 | 0.00 | 80 | 1013.3 |
| 20260901011018 | 79 | 254 | 4.0 | 8.0 | 0.00 | 0.00 | 0.00 | 80 | 1013.3 |
| 20260901010521 | 79 | 232 | 4.0 | 7.0 | 0.00 | 0.00 | 0.00 | 80 | 1013.2 |
| 20260901010037 | 79 | 231 | 4.0 | 6.0 | 0.00 | 0.00 | 0.00 | 80 | 1013.1 |
| 20260901005518 | 80 | 215 | 3.0 | 7.0 | 0.00 | 0.00 | 0.00 | 79 | 1013.0 |
| 20260901005016 | 80 | 244 | 4.0 | 8.0 | 0.00 | 0.00 | 0.00 | 79 | 1013.1 |
| 20260901004543 | 80 | 240 | 2.0 | 8.0 | 0.00 | 0.00 | 0.00 | 79 | 1013.0 |
| 20260901004018 | 80 | 236 | 3.0 | 8.0 | 0.00 | 0.00 | 0.00 | 78 | 1012.9 |
| 20260901003516 | 80 | 227 | 2.0 | 7.0 | 0.00 | 0.00 | 0.00 | 78 | 1013.0 |
| 20260901003048 | 80 | 225 | 4.0 | 7.0 | 0.00 | 0.00 | 0.00 | 78 | 1012.9 |
| 20260901002518 | 80 | 279 | 2.0 | 7.0 | 0.00 | 0.00 | 0.00 | 77 | 1012.9 |
| 20260901002023 | 81 | 224 | 3.0 | 9.0 | 0.00 | 0.00 | 0.00 | 77 | 1012.8 |
| 20260901001551 | 81 | 253 | 3.0 | 9.0 | 0.00 | 0.00 | 0.00 | 76 | 1012.9 |
| 20260901001019 | 81 | 219 | 4.0 | 10.0 | 0.00 | 0.00 | 0.00 | 76 | 1012.9 |
| 20260901000519 | 81 | 230 | 4.0 | 10.0 | 0.00 | 0.00 | 0.00 | 75 | 1012.8 |
| 20260901000040 | 81 | 173 | 4.0 | 10.0 | 0.00 | 0.00 | 0.00 | 75 | 1012.7 |
| 20260831235523 | 81 | 232 | 4.0 | 10.0 | 0.00 | 0.00 | 0.00 | 75 | 1012.8 |
| 20260831235018 | 82 | 225 | 4.0 | 9.0 | 0.00 | 0.00 | 0.00 | 75 | 1012.6 |
| 20260831234540 | 81 | 241 | 4.0 | 10.0 | 0.00 | 0.00 | 0.00 | 75 | 1012.5 |
| 20260831234016 | 82 | 224 | 3.0 | 10.0 | 0.00 | 0.00 | 0.00 | 75 | 1012.5 |
| 20260831233520 | 82 | 247 | 5.0 | 10.0 | 0.00 | 0.00 | 0.00 | 75 | 1012.5 |
| 20260831233040 | 82 | 252 | 6.0 | 10.0 | 0.00 | 0.00 | 0.00 | 74 | 1012.5 |
| 20260831232520 | 83 | 249 | 3.0 | 7.0 | 0.00 | 0.00 | 0.00 | 74 | 1012.5 |
| 20260831232020 | 82 | 201 | 4.0 | 7.0 | 0.00 | 0.00 | 0.00 | 74 | 1012.6 |
| 20260831231536 | 82 | 232 | 3.0 | 7.0 | 0.00 | 0.00 | 0.00 | 75 | 1012.4 |
| 20260831231023 | 81 | 210 | 4.0 | 7.0 | 0.00 | 0.00 | 0.00 | 75 | 1012.2 |
| 20260831230517 | 82 | 192 | 3.0 | 6.0 | 0.00 | 0.00 | 0.00 | 75 | 1012.1 |
| 20260831230041 | 82 | 196 | 2.0 | 8.0 | 0.00 | 0.00 | 0.00 | 75 | 1012.0 |
| 20260831225520 | 82 | 198 | 2.0 | 8.0 | 0.00 | 0.00 | 0.00 | 75 | 1012.4 |
| 20260831225022 | 82 | 215 | 4.0 | 7.0 | 0.00 | 0.00 | 0.00 | 74 | 1012.3 |
| 20260831224538 | 82 | 261 | 2.0 | 6.0 | 0.00 | 0.00 | 0.00 | 75 | 1012.7 |
| 20260831224021 | 82 | 257 | 3.0 | 6.0 | 0.00 | 0.00 | 0.00 | 74 | 1012.7 |
| 20260831223520 | 82 | 237 | 3.0 | 7.0 | 0.00 | 0.00 | 0.00 | 74 | 1012.4 |
| 20260831223040 | 82 | 231 | 3.0 | 7.0 | 0.00 | 0.00 | 0.00 | 73 | 1012.3 |
| 20260831222517 | 83 | 232 | 3.0 | 7.0 | 0.00 | 0.00 | 0.00 | 73 | 1012.2 |
| 20260831222054 | 83 | 197 | 2.0 | 9.0 | 0.00 | 0.00 | 0.00 | 73 | 1012.1 |
| 20260831221552 | 83 | 202 | 4.0 | 9.0 | 0.00 | 0.00 | 0.00 | 71 | 1012.1 |
| 20260831221021 | 83 | 205 | 3.0 | 11.0 | 0.00 | 0.00 | 0.00 | 71 | 1012.0 |
| 20260831220521 | 84 | 230 | 4.0 | 11.0 | 0.00 | 0.00 | 0.00 | 71 | 1012.2 |
| 20260831220039 | 84 | 295 | 5.0 | 10.0 | 0.00 | 0.00 | 0.00 | 71 | 1012.1 |
| 20260831215519 | 84 | 175 | 4.0 | 10.0 | 0.00 | 0.00 | 0.00 | 71 | 1012.2 |
| 20260831215020 | 84 | 236 | 3.0 | 10.0 | 0.00 | 0.00 | 0.00 | 71 | 1012.2 |
| 20260831214538 | 84 | 284 | 6.0 | 10.0 | 0.00 | 0.00 | 0.00 | 71 | 1012.2 |
| 20260831214019 | 84 | 196 | 2.0 | 10.0 | 0.00 | 0.00 | 0.00 | 71 | 1012.2 |
| 20260831213523 | 84 | 234 | 3.0 | 10.0 | 0.00 | 0.00 | 0.00 | 71 | 1012.3 |
| 20260831213049 | 84 | 252 | 4.0 | 12.0 | 0.00 | 0.00 | 0.00 | 70 | 1012.4 |
| 20260831212516 | 84 | 268 | 7.0 | 12.0 | 0.00 | 0.00 | 0.00 | 69 | 1012.3 |
| 20260831212016 | 84 | 257 | 5.0 | 13.0 | 0.00 | 0.00 | 0.00 | 69 | 1012.3 |
| 20260831211540 | 84 | 215 | 7.0 | 13.0 | 0.00 | 0.00 | 0.00 | 69 | 1012.3 |
| 20260831211020 | 84 | 246 | 5.0 | 11.0 | 0.00 | 0.00 | 0.00 | 69 | 1012.3 |
| 20260831210523 | 85 | 263 | 4.0 | 12.0 | 0.00 | 0.00 | 0.00 | 69 | 1012.3 |
| 20260831210036 | 85 | 243 | 6.0 | 13.0 | 0.00 | 0.00 | 0.00 | 69 | 1012.2 |
| 20260831205522 | 85 | 237 | 6.0 | 13.0 | 0.00 | 0.00 | 0.00 | 68 | 1012.1 |
| 20260831205020 | 85 | 245 | 5.0 | 10.0 | 0.00 | 0.00 | 0.00 | 68 | 1011.9 |
| 20260831204535 | 85 | 175 | 3.0 | 10.0 | 0.00 | 0.00 | 0.00 | 68 | 1012.0 |
| 20260831204016 | 85 | 234 | 4.0 | 11.0 | 0.00 | 0.00 | 0.00 | 67 | 1012.0 |
| 20260831203520 | 85 | 317 | 4.0 | 12.0 | 0.00 | 0.00 | 0.00 | 66 | 1012.1 |
| 20260831203038 | 85 | 223 | 7.0 | 12.0 | 0.00 | 0.00 | 0.00 | 66 | 1012.2 |
| 20260831202516 | 86 | 254 | 6.0 | 13.0 | 0.00 | 0.00 | 0.00 | 65 | 1012.2 |
| 20260831202018 | 86 | 249 | 5.0 | 14.0 | 0.00 | 0.00 | 0.00 | 65 | 1012.0 |
| 20260831201539 | 86 | 263 | 6.0 | 14.0 | 0.00 | 0.00 | 0.00 | 65 | 1012.0 |
| 20260831201019 | 86 | 256 | 5.0 | 12.0 | 0.00 | 0.00 | 0.00 | 64 | 1011.9 |
| 20260831200518 | 86 | 171 | 6.0 | 13.0 | 0.00 | 0.00 | 0.00 | 63 | 1011.9 |
| 20260831200040 | 86 | 243 | 6.0 | 13.0 | 0.00 | 0.00 | 0.00 | 64 | 1011.7 |
| 20260831195520 | 86 | 275 | 6.0 | 12.0 | 0.00 | 0.00 | 0.00 | 63 | 1011.9 |
| 20260831195018 | 87 | 265 | 7.0 | 14.0 | 0.00 | 0.00 | 0.00 | 63 | 1012.0 |
| 20260831194539 | 88 | 284 | 4.0 | 14.0 | 0.00 | 0.00 | 0.00 | 62 | 1012.1 |
| 20260831194021 | 87 | 315 | 7.0 | 15.0 | 0.00 | 0.00 | 0.00 | 61 | 1012.1 |
| 20260831193523 | 88 | 244 | 8.0 | 15.0 | 0.00 | 0.00 | 0.00 | 60 | 1012.1 |
| 20260831193038 | 88 | 269 | 8.0 | 15.0 | 0.00 | 0.00 | 0.00 | 60 | 1012.1 |
| 20260831192521 | 88 | 278 | 5.0 | 13.0 | 0.00 | 0.00 | 0.00 | 61 | 1012.0 |
| 20260831192019 | 87 | 272 | 5.0 | 12.0 | 0.00 | 0.00 | 0.00 | 62 | 1012.0 |
| 20260831191550 | 87 | 223 | 6.0 | 15.0 | 0.00 | 0.00 | 0.00 | 62 | 1012.1 |
| 20260831191016 | 87 | 219 | 6.0 | 15.0 | 0.00 | 0.00 | 0.00 | 63 | 1012.0 |
| 20260831190516 | 88 | 304 | 7.0 | 16.0 | 0.00 | 0.00 | 0.00 | 60 | 1012.0 |
| 20260831190040 | 87 | 250 | 5.0 | 16.0 | 0.00 | 0.00 | 0.00 | 62 | 1012.0 |
| 20260831185519 | 86 | 200 | 8.0 | 14.0 | 0.00 | 0.00 | 0.00 | 62 | 1012.1 |
| 20260831185020 | 87 | 205 | 6.0 | 15.0 | 0.00 | 0.00 | 0.00 | 61 | 1012.2 |
| 20260831184538 | 87 | 258 | 6.0 | 15.0 | 0.00 | 0.00 | 0.00 | 61 | 1012.2 |
| 20260831184023 | 86 | 217 | 8.0 | 15.0 | 0.00 | 0.00 | 0.00 | 61 | 1012.2 |
| 20260831183517 | 86 | 248 | 8.0 | 17.0 | 0.00 | 0.00 | 0.00 | 61 | 1012.3 |
| 20260831183043 | 86 | 259 | 7.0 | 17.0 | 0.00 | 0.00 | 0.00 | 61 | 1012.2 |
| 20260831182519 | 86 | 242 | 7.0 | 17.0 | 0.00 | 0.00 | 0.00 | 63 | 1012.3 |
| 20260831182016 | 86 | 312 | 7.0 | 16.0 | 0.00 | 0.00 | 0.00 | 63 | 1012.2 |
| 20260831181540 | 86 | 244 | 6.0 | 16.0 | 0.00 | 0.00 | 0.00 | 62 | 1012.3 |
| 20260831181021 | 86 | 216 | 6.0 | 15.0 | 0.00 | 0.00 | 0.00 | 63 | 1012.4 |
| 20260831180519 | 85 | 284 | 8.0 | 17.0 | 0.00 | 0.00 | 0.00 | 64 | 1012.4 |
| 20260831180039 | 84 | 291 | 8.0 | 17.0 | 0.00 | 0.00 | 0.00 | 65 | 1012.3 |
| 20260831175521 | 85 | 278 | 9.0 | 15.0 | 0.00 | 0.00 | 0.00 | 62 | 1012.4 |
| 20260831175021 | 85 | 242 | 5.0 | 16.0 | 0.00 | 0.00 | 0.00 | 62 | 1012.4 |
| 20260831174539 | 85 | 252 | 8.0 | 17.0 | 0.00 | 0.00 | 0.00 | 63 | 1012.3 |
| 20260831174023 | 84 | 253 | 8.0 | 17.0 | 0.00 | 0.00 | 0.00 | 63 | 1012.4 |
| 20260831173520 | 84 | 232 | 8.0 | 16.0 | 0.00 | 0.00 | 0.00 | 63 | 1012.5 |
| 20260831173046 | 85 | 259 | 9.0 | 15.0 | 0.00 | 0.00 | 0.00 | 62 | 1012.5 |
| 20260831172519 | 85 | 232 | 8.0 | 15.0 | 0.00 | 0.00 | 0.00 | 62 | 1012.5 |
| 20260831172020 | 84 | 309 | 8.0 | 14.0 | 0.00 | 0.00 | 0.00 | 63 | 1012.4 |
| 20260831171538 | 85 | 238 | 7.0 | 16.0 | 0.00 | 0.00 | 0.00 | 63 | 1012.4 |
| 20260831171019 | 84 | 216 | 8.0 | 17.0 | 0.00 | 0.00 | 0.00 | 62 | 1012.6 |
| 20260831170521 | 85 | 196 | 5.0 | 17.0 | 0.00 | 0.00 | 0.00 | 62 | 1012.6 |
| 20260831170039 | 84 | 231 | 6.0 | 13.0 | 0.00 | 0.00 | 0.00 | 62 | 1012.6 |
| 20260831165524 | 84 | 223 | 5.0 | 15.0 | 0.00 | 0.00 | 0.00 | 62 | 1012.6 |
| 20260831165020 | 83 | 252 | 9.0 | 15.0 | 0.00 | 0.00 | 0.00 | 64 | 1012.7 |
| 20260831164547 | 83 | 258 | 8.0 | 16.0 | 0.00 | 0.00 | 0.00 | 63 | 1012.8 |
| 20260831164020 | 83 | 182 | 4.0 | 16.0 | 0.00 | 0.00 | 0.00 | 65 | 1012.8 |
| 20260831163520 | 82 | 184 | 9.0 | 16.0 | 0.00 | 0.00 | 0.00 | 65 | 1012.8 |
| 20260831163040 | 83 | 234 | 7.0 | 15.0 | 0.00 | 0.00 | 0.00 | 65 | 1012.8 |
| 20260831162521 | 82 | 249 | 6.0 | 16.0 | 0.00 | 0.00 | 0.00 | 66 | 1012.7 |
| 20260831162021 | 82 | 285 | 9.0 | 16.0 | 0.00 | 0.00 | 0.00 | 65 | 1012.9 |
| 20260831161543 | 82 | 238 | 8.0 | 15.0 | 0.00 | 0.00 | 0.00 | 65 | 1012.9 |
| 20260831161020 | 82 | 241 | 6.0 | 14.0 | 0.00 | 0.00 | 0.00 | 65 | 1012.8 |
| 20260831160525 | 82 | 310 | 7.0 | 18.0 | 0.00 | 0.00 | 0.00 | 66 | 1012.9 |
| 20260831160055 | 82 | 147 | 6.0 | 18.0 | 0.00 | 0.00 | 0.00 | 65 | 1012.8 |
| 20260831155520 | 82 | 200 | 8.0 | 18.0 | 0.00 | 0.00 | 0.00 | 65 | 1012.8 |
| 20260831155024 | 81 | 251 | 5.0 | 13.0 | 0.00 | 0.00 | 0.00 | 68 | 1013.0 |
| 20260831154604 | 81 | 167 | 8.0 | 13.0 | 0.00 | 0.00 | 0.00 | 68 | 1013.0 |
| 20260831154025 | 81 | 224 | 7.0 | 12.0 | 0.00 | 0.00 | 0.00 | 70 | 1013.0 |
| 20260831153523 | 81 | 202 | 3.0 | 14.0 | 0.00 | 0.00 | 0.00 | 70 | 1012.9 |
| 20260831153046 | 80 | 214 | 6.0 | 14.0 | 0.00 | 0.00 | 0.00 | 69 | 1012.9 |
| 20260831152519 | 80 | 232 | 4.0 | 14.0 | 0.00 | 0.00 | 0.00 | 69 | 1012.9 |
| 20260831152021 | 79 | 242 | 7.0 | 14.0 | 0.00 | 0.00 | 0.00 | 70 | 1013.0 |
| 20260831151542 | 79 | 214 | 5.0 | 15.0 | 0.00 | 0.00 | 0.00 | 70 | 1013.0 |
| 20260831151020 | 78 | 267 | 6.0 | 15.0 | 0.00 | 0.00 | 0.00 | 71 | 1013.0 |
| 20260831150521 | 78 | 190 | 7.0 | 13.0 | 0.00 | 0.00 | 0.00 | 70 | 1013.2 |
| 20260831150040 | 78 | 223 | 5.0 | 16.0 | 0.00 | 0.00 | 0.00 | 70 | 1013.3 |
| 20260831145516 | 78 | 236 | 6.0 | 16.0 | 0.00 | 0.00 | 0.00 | 72 | 1013.2 |
| 20260831145029 | 78 | 192 | 5.0 | 16.0 | 0.00 | 0.00 | 0.00 | 71 | 1013.1 |
| 20260831144549 | 78 | 229 | 5.0 | 12.0 | 0.00 | 0.00 | 0.00 | 72 | 1013.2 |
| 20260831144026 | 77 | 259 | 5.0 | 13.0 | 0.00 | 0.00 | 0.00 | 72 | 1013.1 |
| 20260831143521 | 77 | 217 | 6.0 | 19.0 | 0.00 | 0.00 | 0.00 | 72 | 1013.1 |
| 20260831143037 | 77 | 194 | 8.0 | 19.0 | 0.00 | 0.00 | 0.00 | 72 | 1013.2 |
| 20260831142522 | 77 | 213 | 6.0 | 16.0 | 0.00 | 0.00 | 0.00 | 72 | 1013.1 |
| 20260831142020 | 77 | 183 | 7.0 | 15.0 | 0.00 | 0.00 | 0.00 | 73 | 1013.0 |
| 20260831141539 | 76 | 207 | 8.0 | 15.0 | 0.00 | 0.00 | 0.00 | 73 | 1013.1 |
| 20260831141020 | 76 | 205 | 6.0 | 15.0 | 0.00 | 0.00 | 0.00 | 74 | 1013.2 |
| 20260831140519 | 76 | 140 | 7.0 | 15.0 | 0.00 | 0.00 | 0.00 | 73 | 1013.2 |
| 20260831140038 | 76 | 252 | 4.0 | 14.0 | 0.00 | 0.00 | 0.00 | 74 | 1013.1 |
| 20260831135524 | 76 | 203 | 4.0 | 12.0 | 0.00 | 0.00 | 0.00 | 74 | 1013.2 |
| 20260831135025 | 76 | 188 | 6.0 | 12.0 | 0.00 | 0.00 | 0.00 | 74 | 1013.1 |
| 20260831134545 | 76 | 244 | 5.0 | 15.0 | 0.00 | 0.00 | 0.00 | 75 | 1013.1 |
| 20260831134019 | 76 | 190 | 7.0 | 15.0 | 0.00 | 0.00 | 0.00 | 74 | 1013.1 |
| 20260831133519 | 76 | 165 | 5.0 | 12.0 | 0.00 | 0.00 | 0.00 | 74 | 1013.0 |
| 20260831133045 | 76 | 154 | 5.0 | 12.0 | 0.00 | 0.00 | 0.00 | 75 | 1013.2 |
| 20260831132522 | 75 | 213 | 5.0 | 11.0 | 0.00 | 0.00 | 0.00 | 76 | 1013.1 |
| 20260831132020 | 75 | 163 | 5.0 | 10.0 | 0.00 | 0.00 | 0.00 | 76 | 1012.9 |
| 20260831131543 | 75 | 202 | 3.0 | 10.0 | 0.00 | 0.00 | 0.00 | 77 | 1012.9 |
| 20260831131018 | 74 | 225 | 4.0 | 11.0 | 0.00 | 0.00 | 0.00 | 77 | 1013.1 |
| 20260831130518 | 74 | 218 | 6.0 | 13.0 | 0.00 | 0.00 | 0.00 | 77 | 1013.0 |
| 20260831130041 | 74 | 178 | 6.0 | 15.0 | 0.00 | 0.00 | 0.00 | 77 | 1013.1 |
| 20260831125555 | 74 | 178 | 7.0 | 16.0 | 0.00 | 0.00 | 0.00 | 77 | 1013.0 |
| 20260831125015 | 74 | 246 | 6.0 | 16.0 | 0.00 | 0.00 | 0.00 | 77 | 1013.0 |
| 20260831124552 | 74 | 196 | 5.0 | 15.0 | 0.00 | 0.00 | 0.00 | 78 | 1013.0 |
| 20260831124022 | 74 | 217 | 7.0 | 15.0 | 0.00 | 0.00 | 0.00 | 78 | 1013.0 |
| 20260831123522 | 74 | 200 | 8.0 | 14.0 | 0.00 | 0.00 | 0.00 | 78 | 1012.8 |
| 20260831123039 | 74 | 213 | 5.0 | 15.0 | 0.00 | 0.00 | 0.00 | 79 | 1012.8 |
| 20260831122525 | 73 | 227 | 7.0 | 15.0 | 0.00 | 0.00 | 0.00 | 79 | 1012.8 |
| 20260831122020 | 73 | 204 | 5.0 | 12.0 | 0.00 | 0.00 | 0.00 | 80 | 1012.8 |
| 20260831121537 | 73 | 224 | 4.0 | 12.0 | 0.00 | 0.00 | 0.00 | 80 | 1012.8 |
| 20260831121019 | 73 | 142 | 6.0 | 12.0 | 0.00 | 0.00 | 0.00 | 80 | 1012.9 |
| 20260831120521 | 73 | 227 | 5.0 | 12.0 | 0.00 | 0.00 | 0.00 | 80 | 1012.9 |
| 20260831120044 | 73 | 228 | 6.0 | 13.0 | 0.00 | 0.00 | 0.00 | 81 | 1012.8 |
| 20260831115515 | 73 | 194 | 6.0 | 13.0 | 0.00 | 0.00 | 0.00 | 81 | 1012.9 |
| 20260831115015 | 72 | 180 | 5.0 | 12.0 | 0.00 | 0.00 | 0.00 | 82 | 1012.8 |
| 20260831114548 | 72 | 166 | 4.0 | 11.0 | 0.00 | 0.00 | 0.00 | 83 | 1012.8 |
| 20260831114021 | 72 | 253 | 3.0 | 11.0 | 0.00 | 0.00 | 0.00 | 84 | 1012.8 |
| 20260831113518 | 71 | 210 | 2.0 | 9.0 | 0.00 | 0.00 | 0.00 | 85 | 1012.9 |
| 20260831113038 | 71 | 176 | 4.0 | 9.0 | 0.00 | 0.00 | 0.00 | 86 | 1012.9 |
| 20260831112522 | 71 | 165 | 4.0 | 10.0 | 0.00 | 0.00 | 0.00 | 86 | 1012.9 |
| 20260831112019 | 71 | 164 | 5.0 | 10.0 | 0.00 | 0.00 | 0.00 | 86 | 1013.0 |
| 20260831111535 | 71 | 161 | 4.0 | 8.0 | 0.00 | 0.00 | 0.00 | 86 | 1013.0 |
| 20260831111016 | 71 | 168 | 3.0 | 7.0 | 0.00 | 0.00 | 0.00 | 86 | 1013.2 |
| 20260831110518 | 71 | 157 | 2.0 | 6.0 | 0.00 | 0.00 | 0.00 | 86 | 1013.2 |
| 20260831110042 | 71 | 168 | 2.0 | 6.0 | 0.00 | 0.00 | 0.00 | 86 | 1013.3 |
| 20260831105522 | 71 | 148 | 2.0 | 5.0 | 0.00 | 0.00 | 0.00 | 86 | 1013.3 |
| 20260831105023 | 71 | 142 | 2.0 | 5.0 | 0.00 | 0.00 | 0.00 | 85 | 1013.5 |
| 20260831104547 | 71 | 165 | 3.0 | 7.0 | 0.00 | 0.00 | 0.00 | 85 | 1013.6 |
| 20260831104019 | 71 | 150 | 3.0 | 7.0 | 0.00 | 0.00 | 0.00 | 85 | 1013.7 |
| 20260831103517 | 71 | 167 | 1.0 | 8.0 | 0.00 | 0.00 | 0.00 | 86 | 1013.7 |
| 20260831103038 | 71 | 0 | 2.0 | 8.0 | 0.00 | 0.00 | 0.00 | 85 | 1013.7 |
| 20260831102518 | 71 | 175 | 3.0 | 9.0 | 0.00 | 0.00 | 0.00 | 85 | 1013.7 |
| 20260831102016 | 71 | 181 | 4.0 | 9.0 | 0.00 | 0.00 | 0.00 | 85 | 1013.7 |
| 20260831101539 | 72 | 138 | 3.0 | 7.0 | 0.00 | 0.00 | 0.00 | 85 | 1013.8 |
| 20260831101018 | 72 | 155 | 4.0 | 7.0 | 0.00 | 0.00 | 0.00 | 84 | 1013.7 |
| 20260831100517 | 72 | 181 | 2.0 | 7.0 | 0.00 | 0.00 | 0.00 | 83 | 1014.0 |
| 20260831100043 | 72 | 166 | 2.0 | 7.0 | 0.00 | 0.00 | 0.00 | 83 | 1013.9 |
| 20260831095518 | 72 | 149 | 5.0 | 7.0 | 0.00 | 0.04 | 0.00 | 82 | 1013.7 |
| 20260831095024 | 72 | 173 | 3.0 | 6.0 | 0.00 | 0.04 | 0.00 | 82 | 1013.8 |
| 20260831094540 | 72 | 211 | 2.0 | 6.0 | 0.00 | 0.04 | 0.00 | 82 | 1014.1 |
| 20260831094021 | 72 | 136 | 3.0 | 5.0 | 0.00 | 0.04 | 0.00 | 82 | 1013.8 |
| 20260831093524 | 72 | 145 | 1.0 | 4.0 | 0.00 | 0.04 | 0.00 | 83 | 1013.9 |
| 20260831093046 | 72 | 164 | 2.0 | 4.0 | 0.00 | 0.04 | 0.00 | 82 | 1013.9 |
| 20260831092518 | 72 | 144 | 1.0 | 4.0 | 0.00 | 0.04 | 0.00 | 83 | 1013.8 |
| 20260831092020 | 72 | 158 | 2.0 | 4.0 | 0.00 | 0.04 | 0.00 | 83 | 1013.9 |
| 20260831091538 | 72 | 142 | 2.0 | 4.0 | 0.00 | 0.04 | 0.00 | 83 | 1013.9 |
| 20260831091025 | 72 | 155 | 2.0 | 3.0 | 0.00 | 0.04 | 0.00 | 83 | 1013.9 |
| 20260831090517 | 71 | 127 | 1.0 | 4.0 | 0.00 | 0.04 | 0.00 | 84 | 1013.9 |
| 20260831090040 | 71 | 161 | 2.0 | 4.0 | 0.00 | 0.04 | 0.00 | 84 | 1014.0 |
| 20260831085521 | 71 | 150 | 2.0 | 3.0 | 0.00 | 0.04 | 0.00 | 84 | 1014.1 |
| 20260831085021 | 71 | 165 | 2.0 | 4.0 | 0.00 | 0.04 | 0.00 | 84 | 1014.1 |
| 20260831084540 | 71 | 144 | 2.0 | 4.0 | 0.00 | 0.04 | 0.00 | 85 | 1014.1 |
| 20260831084016 | 71 | 171 | 1.0 | 2.0 | 0.00 | 0.04 | 0.00 | 85 | 1014.2 |
| 20260831083523 | 71 | 153 | 1.0 | 4.0 | 0.00 | 0.04 | 0.00 | 85 | 1014.2 |
| 20260831083046 | 71 | 162 | 1.0 | 4.0 | 0.00 | 0.04 | 0.00 | 86 | 1014.0 |
| 20260831082523 | 70 | 161 | 2.0 | 3.0 | 0.00 | 0.04 | 0.00 | 87 | 1014.0 |
| 20260831082019 | 70 | 194 | 1.0 | 3.0 | 0.00 | 0.04 | 0.00 | 88 | 1014.0 |
| 20260831081539 | 70 | 171 | 1.0 | 3.0 | 0.00 | 0.04 | 0.00 | 88 | 1014.0 |
| 20260831081022 | 70 | 148 | 1.0 | 2.0 | 0.00 | 0.04 | 0.00 | 88 | 1014.0 |
| 20260831080519 | 70 | 150 | 1.0 | 4.0 | 0.00 | 0.04 | 0.00 | 88 | 1014.0 |
| 20260831080042 | 70 | 145 | 1.0 | 4.0 | 0.00 | 0.04 | 0.00 | 88 | 1014.0 |
| 20260831075519 | 69 | 165 | 1.0 | 4.0 | 0.00 | 0.04 | 0.00 | 89 | 1014.0 |
| 20260831075019 | 69 | 143 | 1.0 | 3.0 | 0.00 | 0.04 | 0.00 | 89 | 1013.9 |
| 20260831074544 | 69 | 172 | 2.0 | 3.0 | 0.00 | 0.04 | 0.00 | 89 | 1014.1 |
| 20260831074023 | 69 | 167 | 1.0 | 2.0 | 0.00 | 0.04 | 0.00 | 89 | 1014.1 |
| 20260831073524 | 69 | 141 | 1.0 | 3.0 | 0.00 | 0.04 | 0.00 | 89 | 1014.1 |
| 20260831073054 | 69 | 142 | 2.0 | 3.0 | 0.00 | 0.04 | 0.00 | 90 | 1014.2 |
| 20260831072524 | 69 | 155 | 0.0 | 2.0 | 0.00 | 0.04 | 0.00 | 89 | 1014.4 |
| 20260831072019 | 69 | 144 | 1.0 | 2.0 | 0.00 | 0.04 | 0.00 | 89 | 1014.5 |
| 20260831071546 | 69 | 165 | 1.0 | 2.0 | 0.00 | 0.04 | 0.00 | 89 | 1014.6 |
| 20260831071017 | 69 | 170 | 1.0 | 2.0 | 0.00 | 0.04 | 0.00 | 89 | 1014.7 |
| 20260831070519 | 69 | 246 | 1.0 | 2.0 | 0.00 | 0.04 | 0.00 | 89 | 1014.9 |
| 20260831070051 | 69 | 0 | 0.0 | 2.0 | 0.00 | 0.04 | 0.00 | 89 | 1014.9 |
| 20260831065520 | 70 | 159 | 1.0 | 4.0 | 0.00 | 0.04 | 0.00 | 88 | 1015.0 |
| 20260831065021 | 70 | 110 | 2.0 | 4.0 | 0.00 | 0.04 | 0.00 | 89 | 1015.2 |
| 20260831064541 | 70 | 115 | 1.0 | 3.0 | 0.00 | 0.04 | 0.00 | 88 | 1015.2 |
| 20260831064018 | 70 | 141 | 1.0 | 2.0 | 0.00 | 0.04 | 0.00 | 89 | 1015.3 |
| 20260831063519 | 70 | 210 | 0.0 | 2.0 | 0.00 | 0.04 | 0.00 | 89 | 1015.4 |
| 20260831063040 | 69 | 210 | 1.0 | 2.0 | 0.00 | 0.04 | 0.00 | 89 | 1015.4 |
| 20260831062521 | 70 | 0 | 0.0 | 2.0 | 0.00 | 0.04 | 0.00 | 88 | 1015.3 |
| 20260831062022 | 70 | 0 | 0.0 | 3.0 | 0.00 | 0.04 | 0.00 | 88 | 1015.5 |
| 20260831061539 | 70 | 161 | 1.0 | 3.0 | 0.00 | 0.04 | 0.00 | 88 | 1015.4 |
| 20260831061019 | 70 | 205 | 0.0 | 2.0 | 0.00 | 0.04 | 0.00 | 88 | 1015.5 |
| 20260831060523 | 70 | 205 | 0.0 | 2.0 | 0.00 | 0.04 | 0.00 | 87 | 1015.5 |
| 20260831060046 | 70 | 205 | 1.0 | 2.0 | 0.00 | 0.04 | 0.00 | 87 | 1015.5 |
| 20260831055519 | 71 | 0 | 0.0 | 2.0 | 0.00 | 0.04 | 0.00 | 87 | 1015.5 |
| 20260831055025 | 71 | 198 | 1.0 | 2.0 | 0.00 | 0.04 | 0.00 | 87 | 1015.7 |
| 20260831054540 | 71 | 225 | 0.0 | 3.0 | 0.00 | 0.04 | 0.00 | 86 | 1015.5 |
| 20260831054023 | 71 | 0 | 0.0 | 5.0 | 0.00 | 0.04 | 0.00 | 86 | 1015.5 |
| 20260831053526 | 71 | 346 | 2.0 | 5.0 | 0.00 | 0.04 | 0.00 | 86 | 1015.5 |
| 20260831053041 | 71 | 323 | 2.0 | 5.0 | 0.00 | 0.04 | 0.00 | 86 | 1015.5 |
| 20260831052520 | 71 | 334 | 3.0 | 5.0 | 0.00 | 0.04 | 0.00 | 86 | 1015.4 |
| 20260831052017 | 71 | 336 | 3.0 | 5.0 | 0.00 | 0.04 | 0.00 | 87 | 1015.4 |
| 20260831051539 | 71 | 336 | 2.0 | 5.0 | 0.00 | 0.04 | 0.00 | 86 | 1015.5 |
| 20260831051022 | 71 | 24 | 2.0 | 3.0 | 0.00 | 0.04 | 0.00 | 86 | 1015.5 |
| 20260831050520 | 71 | 352 | 1.0 | 3.0 | 0.00 | 0.04 | 0.00 | 86 | 1015.5 |
| 20260831050057 | 71 | 243 | 1.0 | 5.0 | 0.00 | 0.04 | 0.00 | 85 | 1015.5 |
| 20260831045519 | 71 | 234 | 2.0 | 5.0 | 0.00 | 0.04 | 0.04 | 85 | 1015.5 |
| 20260831045025 | 71 | 222 | 2.0 | 4.0 | 0.00 | 0.04 | 0.04 | 85 | 1015.4 |
| 20260831044553 | 71 | 318 | 1.0 | 2.0 | 0.00 | 0.04 | 0.04 | 85 | 1015.4 |
| 20260831044020 | 71 | 284 | 0.0 | 1.0 | 0.00 | 0.04 | 0.04 | 85 | 1015.3 |
| 20260831043521 | 71 | 0 | 0.0 | 2.0 | 0.00 | 0.04 | 0.04 | 85 | 1015.2 |
| 20260831043043 | 71 | 284 | 1.0 | 3.0 | 0.00 | 0.04 | 0.04 | 85 | 1015.1 |
| 20260831042521 | 71 | 282 | 1.0 | 3.0 | 0.00 | 0.04 | 0.04 | 85 | 1015.0 |
| 20260831042021 | 72 | 292 | 0.0 | 2.0 | 0.00 | 0.04 | 0.04 | 84 | 1015.0 |
| 20260831041538 | 72 | 262 | 0.0 | 2.0 | 0.00 | 0.04 | 0.04 | 84 | 1014.7 |
| 20260831041021 | 72 | 277 | 0.0 | 4.0 | 0.00 | 0.04 | 0.04 | 84 | 1014.7 |